Hourly Data Report for May 18, 2019

MIRAMICHI RCS
NEW BRUNSWICK
Current Station Operator: ECCC - MSC

47°00'34.000" N
65°27'54.000" W
33.00 m
8100989
71744
ACQ

Download Data

Hourly Data (May 2019)
Hourly Data Report for May 18, 2019
TIME
LST
Temp Definition
°C
Dew Point Definition
°C
Rel Hum Definition
%
Precip. Amount Definition
mm

Wind Dir Definition
10's deg

Wind Spd Definition
km/h
Visibility Definition
km
Stn Press Definition
kPa
Hmdx Definition


Wind Chill Definition


Weather Definition


00:00 5.5 4.1 91 0.0 6 9   100.58     LegendNANA
01:00 5.0 3.9 93 0.2 3 6   100.54     LegendNANA
02:00 4.8 3.8 94 0.6 3 9   100.50     LegendNANA
03:00 4.6 3.7 94 0.2 4 16   100.42     LegendNANA
04:00 4.1 2.9 92 0.0 4 12   100.46     LegendNANA
05:00 3.7 2.1 89 0.0 4 12   100.48     LegendNANA
06:00 3.8 2.5 91 0.2 4 12   100.51     LegendNANA
07:00 4.4 3.0 91 0.0 4 16   100.57     LegendNANA
08:00 5.5 3.2 85 0.0 3 16   100.64     LegendNANA
09:00 6.2 3.0 80 0.0 5 15   100.70     LegendNANA
10:00 7.5 2.6 71 0.0 4 13   100.76     LegendNANA
11:00 6.9 3.9 81 0.0 2 17   100.81     LegendNANA
12:00 7.9 2.8 70 0.0 3 13   100.81     LegendNANA
13:00 8.9 2.9 66 0.0 4 15   100.85     LegendNANA
14:00 8.8 3.3 68 0.0 9 11   100.92     LegendNANA
15:00 8.8 4.1 73 0.0 8 12   100.90     LegendNANA
16:00 9.6 3.6 66 0.0 10 2   100.91     LegendNANA
17:00 7.6 3.8 77 0.0 8 19   101.02     LegendNANA
18:00 7.3 3.6 78 0.0 9 21   101.08     LegendNANA
19:00 6.8 3.2 78 0.0 9 14   101.15     LegendNANA
20:00 6.0 2.7 79 0.2 12 5   101.19     LegendNANA
21:00 4.8 2.6 86 0.0 0 1   101.24     LegendNANA
22:00 4.1 2.5 90 0.0 30 2   101.29     LegendNANA
23:00 2.4 1.3 93 0.0 29 5   101.33     LegendNANA

Notes on Data Quality.

Legend

  • E = Estimated
  • M = Missing
  • NA = Not Available*
  • [empty] = Indicates an unobserved value
Date modified: